Orbital Elements at Epoch 2459200.5 (2020-Dec-17.0) TDB
Reference: JPL 35 (heliocentric ecliptic J2000)
Element | Value | Uncertainty (1-sigma) | Units |
e | .07862642984611323 | 1.58e-08 | |
a | 2.35325519383344 | 7.8893e-09 | au |
q | 2.168227139425493 | 3.8567e-08 | au |
i | 6.254321028804875 | 6.5284e-07 | deg |
node | 287.0459815103265 | 5.5851e-06 | deg |
peri | 323.6568175373877 | 1.1217e-05 | deg |
M | 51.44758113645078 | 1.0792e-05 | deg |
tp | 2459012.063761815960 (2020-Jun-11.56376182) | 3.949e-05 | TDB |
period | 1318.566281402717 3.61 | 6.6307e-06 1.815e-08 | d yr |
n | .2730238176703752 | 1.373e-09 | deg/d |
Q | 2.538283248241386 | 8.5096e-09 | au |
|
| | Orbit Determination Parameters
Additional Information
|